Погода в Юрьевеце

Погода в Юрьевеце : погода сейчас, прогноз погоды и архив. Всё, что Вы хотите узнать о погоде в Юрьевеце!

Хотите узнать прогноз погоды в Юрьевеце? Тогда Вам сюда: Погода в Юрьевеце

Поиск расширенной информации на нашем сайте:

Другие новости

Новости СМИ2

Главная страница сайта

Новости сайта

03.07.2017

Напоминаем, что на нашем специализированном сайте Метеоцентр.Азия вы можете получить высокодетализированные автоматические прогнозы погоды по пунктам России, СНГ и мира в авиационном формате (включающие направление и скорость ветра, видимость, явления погоды, количество и форму облачности, нижнюю и верхнюю границу облачности).

Рекомендуем: http://krovat-divan.ru/ недорогие экологичные диван кровати.

Погода в Юрьевеце - сегодня

Время (UTC), дата Ветер
(°,м/с) 
Видим.   Явления Облачность Т
(°С)
Тd
(°С)
f(%) Тe
(°С)
Pmin
(гПа)
dP
(гПа)
Po
(мм)
O2
(г/м3)
Тmin Tmax R s Состояние
почвы
09 19.09.17 210 (ЮЗ) 10 км    9/6 600 м средняя 
[Cu med, cong|Ac As]
+15.8 +7.4 57 +16  1006.2  1.3  743  282           
12 19.09.17 220 (ЮЗ) 10 км    9/8 600 м средняя 
[Sc|Ac trans]
+14.9 +7.1 60 +16  1008.3  2.1  745  283           
15 19.09.17 220 (ЮЗ) 3{10}  10 км    10/10 600 м 
[Sc]
+13.5 +7.6 67 +14  1010.7  2.2  746  285    +18       
18 19.09.17 230 (ЮЗ) 2{10}  10 км    10/10 300 м 
[Sc]
+12.6 +8.1 74 +13  1012.6  1.8  748  287           
21 19.09.17 250 (З) 2{10}  10 км    10/10 300 м 
[Sc]
+11.9 +7.3 73 +12  1014.3  1.7  749  288           
00 20.09.17 250 (З) 10 км    10/10 300 м 
[Sc]
+11.2 +7.3 77 +11  1016.2  1.7  750  289           
03 20.09.17 260 (З) 10 км    4/3 300 м средняя 
[Sc|Ac trans]
+8.9 +6.7 86 +9  1018.2  1.9  752  292  +8.9         
06 20.09.17 270 (З) 4{10}  10 км    4/3 600 м верхняя 
[Cu med, cong|Ci sp]
+11.9 +7.1 72 +11  1020.3  2.3  753  290  +8.6         
09 20.09.17 280 (З) 10 км    8/8 600 м 
[Cu med, cong]
+14.5 +7.1 61 +14  1021.6  1.4  754  287           
12 20.09.17 280 (З) 4{10}  10 км    9/8 600 м верхняя 
[Cu med, cong|Ci fib]
+14.5 +7.6 63 +14  1023.2  1.6  756  288           
15 20.09.17 300 (СЗ) 10 км    9/4 600 м средняя, верхняя 
[Sc|Ac trans|Ci fib]
+12.2 +8.7 79 +13  1024.1  0.7  756  290    +15.7       
18 20.09.17 260 (З) 10 км    3/0 средняя 
[Ac trans]
+8.8 +7.6 92 +9  1025.6  1.3  757  294           
21 20.09.17 280 (З) 10 км    ясно 
+6.1 +5.2 94 +7  1026.8  758  298           
00 21.09.17 280 (З) 10 км    ясно 
+5.2 +4.4 95 +6  1028  1.2  759  299           
03 21.09.17 тихо ()   10 км    9/0 средняя 
[Ac trans]
+7.4 +6.6 95 +7  1029.1  1.3  760  297  +5.1         
06 21.09.17 020 (С) 10 км    8/8 600 м 
[Sc]
+10.6 +9.6 94 +11  1030.1  1.2  761  293           
09 21.09.17 020 (С) 20000 м    8/8 600 м 
[Cu med, cong]
+13.7 +7.2 65 +14  1030.5  0.5  761  291           
12 21.09.17 040 (СВ) 10 км    9/9 600 м 
[Cu med, cong]
+12.1 +5.9 66 +12  1031.5  0.9  762  293           
15 21.09.17 020 (С) 10 км    9/9 600 м 
[Sc]
+10.3 +6.5 77 +10  1032.6  762  295    +14.5       
18 21.09.17 050 (СВ) 10 км    10/10 600 м 
[Sc]
+8.9 +4.3 73 +8  1034.4  1.6  764  297           
21 21.09.17 050 (СВ) 10 км    ясно 
+6.8 +3.7 81 +7  1036  1.4  765  300           
00 22.09.17 060 (СВ) 10 км    ясно 
+5.5 +3.4 86 +5  1037.3  1.4  766  302           
03 22.09.17 090 (В) 10 км    10/10 600 м 
[Sc]
+6.3 +2.9 79 +6  1038.1  0.8  766  301  +5        влажная 
06 22.09.17 070 (В) 10 км    6/6 600 м 
[Cu med, cong]
+7.4 +3.9 78 +7  1038.8  0.7  767  300           
09 22.09.17 080 (В) 20000 м    1/1 600 м 
[Cu med, cong]
+11.8 +3 55 +12  1038  -0.5  766  296           
Время (UTC), дата Ветер
(°,м/с) 
Видим.   Явления Облачность Т
(°С)
Тd
(°С)
f(%) Тe
(°С)
Pmin
(гПа)
dP
(гПа)
Po
(мм)
O2
(г/м3)
Тmin Tmax R s Состояние
почвы

Для получения пояснительной информации подведите курсор к названию столбца.

ПОГОДА в Юрьевеце - архив

Всё, что Вы хотите узнать о погоде в Юрьевеце - удобно и подробно!

Выберите нужную дату (начиная с 1 января 2015* года) и нажмите кнопку "Найти".
Будут отображены архивные сводки погоды по пункту Юрьевец, начиная с указанной даты.


Отображать данные в формате CSV (для использования в таблицах Excel)


Внимание! Наш архив погоды предназначен исключительно для личного некоммерческого использования в познавательных целях. Если Вам необходимы официальные справки о состоянии погоды (для производственных, юридических, коммерческих и т.п. целей), обращайтесь в органы Росгидромета.

*Примечание: данная дата относится к архиву по метеостанциям СССР (Россия, СНГ, Балтия).
Архив по метеостанциям Зарубежной Европы и Азии (кроме Китая) хранится 10 дней, по другим регионам земного шара (Китай, Африка, Америка, Австралия, Океания) - 1 день.

Юрьевец - район местоположения метеостанции


Название, широта, долгота, высота метеостанции:
Юрьевец 57.3°ш. 43.1°д. 132 м над ур. моря [Российская Федерация]

Дополнительная информация

В oтличие oт бoльшинства пoгoдных сайтoв мы публикуем пoдрoбную метеoинфoрмацию в детальнoм прoфессиoнальнoм фoрмате.

Характеристики температуры и влажнoсти вoздуха измеряются на высoте 2 м в тени вдали oт зданий и деревьев.
Скoрoсть ветра измеряется на высoте 10 м (на урoвне рoста челoвека скoрoсть ветра ниже в 1.5-2 раза). Если метеoстанция нахoдится в гoрoде или в лесу, тo скoрoсть ветра занижена на 2-4 м/с пo сравнению с oткрытым местoм. Скoрoсть ветра над акватoриями крупных рек и oзёр, а также на вершинах хoлмoв на 2-5 м/с выше, чем в oбычных услoвиях.
Атмoсфернoе давление в разных тoчках местнoсти мoжет значительнo oтличаться oт давления на метеoстанции, в зависимoсти oт услoвий рельефа (при пoдъёме на 10 м давление пoнижается примернo на 1 мм рт.ст.).